Tracking 22779 objects as of 12-Apr-2021
HD Live streaming from Space Station
objects crossing your sky now

STARLINK-1607

Track STARLINK-1607 now!
10-day predictions
STARLINK-1607 is classified as:


NORAD ID: 46145
Int'l Code: 2020-057AE
Perigee: 553.5 km
Apogee: 555.2 km
Inclination: 53.1 °
Period: 95.6 minutes
Semi major axis: 6925 km
RCS: Unknown
Launch date: August 18, 2020
Source: United States (US)
Launch site: AIR FORCE EASTERN TEST RANGE (AFETR)
aabbcc
Your satellite tracking list
Your tracking list is empty




NASA's NSSDC Master Catalog

Two Line Element Set (TLE):
1 46145U 20057AE  21101.63647509  .00000644  00000-0  62129-4 0  9997
2 46145  53.0584  65.9251 0001227  64.8334 295.2782 15.06391125 37351
Source of the keplerian elements: AFSPC